Location: Praha
(50.0830°N, 14.4670°E)
Time: 03:39:54
(UTC+02:00)

ISS - Pass Details

Date: 18 May 2024
Orbit: 409 x 414 km, 51.6° (Epoch: 23 May)

Event Time Altitude Azimuth Distance (km) Brightness Sun altitude
Rises 23:25:52 0° 286° (WNW) 2,350 0.6 -17.2°
Reaches altitude 10° 23:27:58 10° 285° (WNW) 1,485 -0.5 -17.3°
Maximum altitude 23:31:17 78° 200° (SSW) 425 -3.9 -17.5°
Enters shadow 23:31:58 53° 126° (SE) 514 -3.7 -17.5°
